Location: Lombard
(41.8800°N, 88.0080°W)
Time: 01:43:05
(UTC-05:00)

Vanguard 3 - Pass Details

Date: 29 January 2023
Orbit: 508 x 3249 km, 33.4° (Epoch: 31 March)

Event Time Altitude Azimuth Distance (km) Brightness Sun altitude
Rises 23:29:47 0° 271° (W) 5,988 11.7 -64.7°
Reaches altitude 10° 23:33:20 10° 268° (W) 5,270 11.3 -64.9°
Enters shadow 23:34:32 14° 266° (W) 5,041 11.1 -65.0°
